Saint Bonnet de Bellac- Haute Vienne - France
Donnes mto: mercredi, 12/09/2012
Date Horaire Temp. E. Hum. E. P.atmo. Pluie Vent Direction Direction Ensoleilleme Solaire P. de rose Temp au vent Rafales
12/09/2012 00:00 16,9 C 79 % 1018,5 hPa 0,0 mm 0,0 km/h (0 Bft) N-NE 22 0 min 0 W/m 13,2 C 16,9 C 0,0 km/h (0 Bft)
12/09/2012 00:10 16,8 C 79 % 1018,4 hPa 0,0 mm 0,0 km/h (0 Bft) NE 45 0 min 0 W/m 13,1 C 16,8 C 3,2 km/h (1 Bft)
12/09/2012 00:20 16,8 C 80 % 1018,4 hPa 0,0 mm 0,0 km/h (0 Bft) N-NE 22 0 min 0 W/m 13,3 C 16,8 C 1,4 km/h (1 Bft)
12/09/2012 00:30 16,6 C 80 % 1018,5 hPa 0,0 mm 1,1 km/h (1 Bft) NE 45 0 min 0 W/m 13,1 C 16,6 C 1,1 km/h (1 Bft)
12/09/2012 00:40 16,6 C 80 % 1018,5 hPa 0,0 mm 2,5 km/h (1 Bft) N-NE 22 0 min 0 W/m 13,1 C 16,6 C 4,0 km/h (1 Bft)
12/09/2012 00:50 16,5 C 80 % 1018,5 hPa 0,0 mm 1,4 km/h (1 Bft) N-NE 22 0 min 0 W/m 13,0 C 16,5 C 1,4 km/h (1 Bft)
12/09/2012 01:00 16,4 C 81 % 1018,5 hPa 0,0 mm 0,0 km/h (0 Bft) NE 45 0 min 0 W/m 13,1 C 16,4 C 0,0 km/h (0 Bft)
12/09/2012 01:10 16,3 C 81 % 1018,5 hPa 0,0 mm 0,0 km/h (0 Bft) NE 45 0 min 0 W/m 13,0 C 16,3 C 0,0 km/h (0 Bft)
12/09/2012 01:20 16,2 C 82 % 1018,6 hPa 0,0 mm 0,4 km/h (0 Bft) N-NE 22 0 min 0 W/m 13,1 C 16,2 C 0,4 km/h (0 Bft)
12/09/2012 01:30 16,2 C 82 % 1018,5 hPa 0,0 mm 4,0 km/h (1 Bft) N-NO 337 0 min 0 W/m 13,1 C 16,2 C 8,6 km/h (2 Bft)
12/09/2012 01:40 16,1 C 82 % 1018,4 hPa 0,0 mm 0,4 km/h (0 Bft) N 360 0 min 0 W/m 13,0 C 16,1 C 2,9 km/h (1 Bft)
12/09/2012 01:50 16,1 C 82 % 1018,5 hPa 0,0 mm 1,1 km/h (1 Bft) N 360 0 min 0 W/m 13,0 C 16,1 C 3,6 km/h (1 Bft)
12/09/2012 02:00 16,0 C 82 % 1018,5 hPa 0,0 mm 2,2 km/h (1 Bft) N-NE 22 0 min 0 W/m 12,9 C 16,0 C 2,2 km/h (1 Bft)
12/09/2012 02:10 15,8 C 82 % 1018,4 hPa 0,0 mm 1,4 km/h (1 Bft) N-NE 22 0 min 0 W/m 12,7 C 15,8 C 6,1 km/h (2 Bft)
12/09/2012 02:20 15,8 C 81 % 1018,3 hPa 0,0 mm 4,3 km/h (1 Bft) N 360 0 min 0 W/m 12,5 C 15,8 C 6,8 km/h (2 Bft)
12/09/2012 02:30 15,7 C 81 % 1018,3 hPa 0,0 mm 2,5 km/h (1 Bft) N-NE 22 0 min 0 W/m 12,4 C 15,7 C 2,5 km/h (1 Bft)
12/09/2012 02:40 15,6 C 81 % 1018,3 hPa 0,0 mm 0,0 km/h (0 Bft) N-NE 22 0 min 0 W/m 12,3 C 15,6 C 0,0 km/h (0 Bft)
12/09/2012 02:50 15,4 C 80 % 1018,2 hPa 0,0 mm 3,2 km/h (1 Bft) N 360 0 min 0 W/m 12,0 C 15,4 C 3,6 km/h (1 Bft)
12/09/2012 03:02 15,3 C 80 % 1018,0 hPa 0,0 mm 0,0 km/h (0 Bft) E 90 0 min 0 W/m 11,9 C 15,3 C 0,0 km/h (0 Bft)
12/09/2012 03:10 15,2 C 79 % 1017,8 hPa 0,0 mm 0,4 km/h (0 Bft) N-NO 337 0 min 0 W/m 11,6 C 15,2 C 3,6 km/h (1 Bft)
12/09/2012 03:20 15,1 C 79 % 1017,8 hPa 0,0 mm 2,5 km/h (1 Bft) NE 45 0 min 0 W/m 11,5 C 15,1 C 6,8 km/h (2 Bft)
12/09/2012 03:30 14,9 C 78 % 1017,9 hPa 0,0 mm 0,0 km/h (0 Bft) NE 45 0 min 0 W/m 11,1 C 14,9 C 0,0 km/h (0 Bft)
12/09/2012 03:40 14,9 C 78 % 1017,8 hPa 0,0 mm 0,4 km/h (0 Bft) O-NO 292 0 min 0 W/m 11,1 C 14,9 C 4,3 km/h (1 Bft)
12/09/2012 03:50 14,8 C 78 % 1018,0 hPa 0,0 mm 1,1 km/h (1 Bft) N-NE 22 0 min 0 W/m 11,0 C 14,8 C 1,4 km/h (1 Bft)
12/09/2012 04:00 14,6 C 77 % 1018,2 hPa 0,0 mm 2,9 km/h (1 Bft) N-NO 337 0 min 0 W/m 10,6 C 14,6 C 4,3 km/h (1 Bft)
12/09/2012 04:10 14,3 C 77 % 1018,2 hPa 0,0 mm 0,0 km/h (0 Bft) N-NE 22 0 min 0 W/m 10,3 C 14,3 C 0,0 km/h (0 Bft)
12/09/2012 04:20 14,1 C 78 % 1018,3 hPa 0,0 mm 0,7 km/h (0 Bft) N 360 0 min 0 W/m 10,3 C 14,1 C 0,7 km/h (0 Bft)
12/09/2012 04:30 13,8 C 78 % 1018,2 hPa 0,0 mm 0,0 km/h (0 Bft) NE 45 0 min 0 W/m 10,0 C 13,8 C 0,0 km/h (0 Bft)
12/09/2012 04:40 13,6 C 79 % 1018,2 hPa 0,0 mm 2,5 km/h (1 Bft) NE 45 0 min 0 W/m 10,0 C 13,6 C 4,3 km/h (1 Bft)
12/09/2012 04:50 13,4 C 79 % 1018,3 hPa 0,0 mm 0,4 km/h (0 Bft) NO 315 0 min 0 W/m 9,8 C 13,4 C 3,2 km/h (1 Bft)
12/09/2012 05:00 13,3 C 79 % 1018,3 hPa 0,0 mm 0,7 km/h (0 Bft) N-NE 22 0 min 0 W/m 9,7 C 13,3 C 4,0 km/h (1 Bft)
12/09/2012 05:10 13,1 C 80 % 1018,3 hPa 0,0 mm 1,1 km/h (1 Bft) N-NE 22 0 min 0 W/m 9,7 C 13,1 C 1,1 km/h (1 Bft)
12/09/2012 05:20 13,1 C 80 % 1018,1 hPa 0,0 mm 0,0 km/h (0 Bft) E-NE 67 0 min 0 W/m 9,7 C 13,1 C 0,0 km/h (0 Bft)
12/09/2012 05:30 12,9 C 80 % 1017,9 hPa 0,0 mm 0,0 km/h (0 Bft) N-NE 22 0 min 0 W/m 9,5 C 12,9 C 0,0 km/h (0 Bft)
12/09/2012 05:40 12,9 C 80 % 1017,7 hPa 0,0 mm 0,4 km/h (0 Bft) N-NE 22 0 min 0 W/m 9,5 C 12,9 C 0,4 km/h (0 Bft)
12/09/2012 05:50 12,8 C 80 % 1017,6 hPa 0,0 mm 0,4 km/h (0 Bft) NE 45 0 min 0 W/m 9,4 C 12,8 C 3,6 km/h (1 Bft)
12/09/2012 06:00 12,8 C 80 % 1017,7 hPa 0,0 mm 0,0 km/h (0 Bft) N-NE 22 0 min 0 W/m 9,4 C 12,8 C 0,0 km/h (0 Bft)
12/09/2012 06:10 12,6 C 80 % 1017,9 hPa 0,0 mm 0,0 km/h (0 Bft) N-NO 337 0 min 0 W/m 9,2 C 12,6 C 0,0 km/h (0 Bft)
12/09/2012 06:20 12,6 C 80 % 1017,8 hPa 0,0 mm 0,0 km/h (0 Bft) N-NO 337 0 min 0 W/m 9,2 C 12,6 C 0,0 km/h (0 Bft)
12/09/2012 06:30 12,6 C 79 % 1017,7 hPa 0,0 mm 0,4 km/h (0 Bft) N-NE 22 0 min 0 W/m 9,1 C 12,6 C 0,4 km/h (0 Bft)
12/09/2012 06:40 12,6 C 79 % 1017,6 hPa 0,0 mm 0,0 km/h (0 Bft) NE 45 0 min 0 W/m 9,1 C 12,6 C 0,0 km/h (0 Bft)
12/09/2012 06:50 12,5 C 79 % 1017,6 hPa 0,0 mm 0,0 km/h (0 Bft) N-NE 22 0 min 0 W/m 9,0 C 12,5 C 0,0 km/h (0 Bft)
12/09/2012 07:00 12,5 C 79 % 1017,7 hPa 0,0 mm 0,7 km/h (0 Bft) NO 315 0 min 0 W/m 9,0 C 12,5 C 4,3 km/h (1 Bft)
12/09/2012 07:10 12,4 C 79 % 1017,7 hPa 0,0 mm 1,8 km/h (1 Bft) N-NE 22 0 min 0 W/m 8,9 C 12,4 C 6,5 km/h (2 Bft)
12/09/2012 07:20 12,3 C 79 % 1017,7 hPa 0,0 mm 0,0 km/h (0 Bft) N 360 0 min 0 W/m 8,8 C 12,3 C 0,0 km/h (0 Bft)
12/09/2012 07:30 12,2 C 78 % 1017,6 hPa 0,0 mm 0,0 km/h (0 Bft) N 360 0 min 0 W/m 8,5 C 12,2 C 0,0 km/h (0 Bft)
12/09/2012 07:40 12,1 C 79 % 1017,7 hPa 0,0 mm 0,0 km/h (0 Bft) N-NE 22 0 min 0 W/m 8,6 C 12,1 C 0,0 km/h (0 Bft)
12/09/2012 07:50 11,9 C 79 % 1018,0 hPa 0,0 mm 0,0 km/h (0 Bft) N-NE 22 0 min 0 W/m 8,4 C 11,9 C 0,0 km/h (0 Bft)
12/09/2012 08:00 11,8 C 79 % 1018,0 hPa 0,0 mm 0,0 km/h (0 Bft) N-NE 22 0 min 0 W/m 8,3 C 11,8 C 0,0 km/h (0 Bft)
12/09/2012 08:10 11,8 C 80 % 1018,1 hPa 0,0 mm 0,0 km/h (0 Bft) N-NE 22 0 min 0 W/m 8,5 C 11,8 C 0,0 km/h (0 Bft)
12/09/2012 08:20 11,7 C 80 % 1018,2 hPa 0,0 mm 0,0 km/h (0 Bft) N-NE 22 0 min 0 W/m 8,4 C 11,7 C 0,0 km/h (0 Bft)
12/09/2012 08:30 11,7 C 80 % 1018,2 hPa 0,0 mm 0,4 km/h (0 Bft) NE 45 0 min 0 W/m 8,4 C 11,7 C 0,4 km/h (0 Bft)
12/09/2012 08:40 11,8 C 80 % 1018,1 hPa 0,0 mm 0,0 km/h (0 Bft) N-NE 22 0 min 0 W/m 8,5 C 11,8 C 0,0 km/h (0 Bft)
12/09/2012 08:50 11,8 C 80 % 1018,3 hPa 0,0 mm 0,0 km/h (0 Bft) N-NE 22 0 min 0 W/m 8,5 C 11,8 C 0,0 km/h (0 Bft)
12/09/2012 09:00 11,9 C 81 % 1018,3 hPa 0,0 mm 0,0 km/h (0 Bft) N 360 0 min 0 W/m 8,7 C 11,9 C 0,0 km/h (0 Bft)
12/09/2012 09:10 12,0 C 81 % 1018,2 hPa 0,0 mm 1,4 km/h (1 Bft) N-NE 22 0 min 0 W/m 8,8 C 12,0 C 3,6 km/h (1 Bft)
12/09/2012 09:20 12,1 C 80 % 1018,3 hPa 0,0 mm 0,4 km/h (0 Bft) E-NE 67 0 min 0 W/m 8,8 C 12,1 C 3,2 km/h (1 Bft)
12/09/2012 09:30 12,2 C 80 % 1018,5 hPa 0,0 mm 0,0 km/h (0 Bft) N 360 0 min 0 W/m 8,9 C 12,2 C 0,0 km/h (0 Bft)
12/09/2012 09:40 12,3 C 80 % 1018,7 hPa 0,0 mm 2,2 km/h (1 Bft) N-NO 337 0 min 0 W/m 8,9 C 12,3 C 2,2 km/h (1 Bft)
12/09/2012 09:50 12,3 C 80 % 1018,8 hPa 0,0 mm 2,2 km/h (1 Bft) NO 315 0 min 0 W/m 8,9 C 12,3 C 2,9 km/h (1 Bft)
12/09/2012 10:00 12,4 C 80 % 1019,0 hPa 0,0 mm 0,4 km/h (0 Bft) NO 315 0 min 0 W/m 9,0 C 12,4 C 3,2 km/h (1 Bft)
12/09/2012 10:10 12,5 C 80 % 1019,1 hPa 0,0 mm 4,0 km/h (1 Bft) N-NE 22 0 min 0 W/m 9,1 C 12,5 C 6,1 km/h (2 Bft)
12/09/2012 10:20 12,6 C 79 % 1019,0 hPa 0,0 mm 1,1 km/h (1 Bft) N-NE 22 0 min 0 W/m 9,1 C 12,6 C 4,3 km/h (1 Bft)
12/09/2012 10:30 12,6 C 79 % 1019,1 hPa 0,0 mm 0,0 km/h (0 Bft) N-NE 22 0 min 0 W/m 9,1 C 12,6 C 0,0 km/h (0 Bft)
12/09/2012 10:40 12,8 C 79 % 1019,3 hPa 0,0 mm 0,7 km/h (0 Bft) NO 315 0 min 0 W/m 9,2 C 12,8 C 3,2 km/h (1 Bft)
12/09/2012 10:50 12,8 C 79 % 1019,0 hPa 0,0 mm 0,4 km/h (0 Bft) N-NE 22 0 min 0 W/m 9,2 C 12,8 C 3,2 km/h (1 Bft)
12/09/2012 11:00 12,8 C 79 % 1019,2 hPa 0,0 mm 2,2 km/h (1 Bft) N 360 0 min 0 W/m 9,2 C 12,8 C 6,1 km/h (2 Bft)
12/09/2012 11:10 12,9 C 78 % 1019,3 hPa 0,0 mm 0,0 km/h (0 Bft) N-NE 22 0 min 0 W/m 9,2 C 12,9 C 0,0 km/h (0 Bft)
12/09/2012 11:20 13,0 C 78 % 1019,1 hPa 0,0 mm 2,5 km/h (1 Bft) N 360 0 min 0 W/m 9,3 C 13,0 C 6,8 km/h (2 Bft)
12/09/2012 11:30 13,2 C 78 % 1019,3 hPa 0,0 mm 0,7 km/h (0 Bft) E-NE 67 0 min 0 W/m 9,4 C 13,2 C 5,8 km/h (2 Bft)
12/09/2012 11:40 13,4 C 78 % 1019,4 hPa 0,0 mm 1,1 km/h (1 Bft) N 360 0 min 0 W/m 9,6 C 13,4 C 4,3 km/h (1 Bft)
12/09/2012 11:50 13,6 C 77 % 1019,1 hPa 0,0 mm 0,7 km/h (0 Bft) N-NE 22 0 min 0 W/m 9,6 C 13,6 C 2,9 km/h (1 Bft)
12/09/2012 12:00 13,9 C 76 % 1019,1 hPa 0,0 mm 1,8 km/h (1 Bft) N-NE 22 0 min 0 W/m 9,7 C 13,9 C 3,6 km/h (1 Bft)
12/09/2012 12:10 14,1 C 73 % 1019,1 hPa 0,0 mm 5,8 km/h (2 Bft) N-NE 22 0 min 0 W/m 9,3 C 14,1 C 7,2 km/h (2 Bft)
12/09/2012 12:20 14,3 C 73 % 1018,9 hPa 0,0 mm 0,0 km/h (0 Bft) E-NE 67 0 min 0 W/m 9,5 C 14,3 C 3,2 km/h (1 Bft)
12/09/2012 12:30 14,6 C 73 % 1019,0 hPa 0,0 mm 0,7 km/h (0 Bft) NE 45 0 min 0 W/m 9,8 C 14,6 C 3,2 km/h (1 Bft)
12/09/2012 12:40 14,8 C 70 % 1019,0 hPa 0,0 mm 3,6 km/h (1 Bft) N-NE 22 0 min 0 W/m 9,4 C 14,8 C 6,1 km/h (2 Bft)
12/09/2012 12:50 15,1 C 70 % 1019,0 hPa 0,0 mm 1,8 km/h (1 Bft) NE 45 0 min 0 W/m 9,7 C 15,1 C 8,3 km/h (2 Bft)
12/09/2012 13:00 15,4 C 68 % 1018,9 hPa 0,0 mm 1,1 km/h (1 Bft) N-NE 22 0 min 0 W/m 9,5 C 15,4 C 4,0 km/h (1 Bft)
12/09/2012 13:10 16,1 C 65 % 1019,0 hPa 0,0 mm 1,4 km/h (1 Bft) N-NO 337 0 min 0 W/m 9,5 C 16,1 C 6,8 km/h (2 Bft)
12/09/2012 13:20 16,9 C 63 % 1018,9 hPa 0,0 mm 2,5 km/h (1 Bft) N-NE 22 0 min 0 W/m 9,8 C 16,9 C 4,0 km/h (1 Bft)
12/09/2012 13:30 17,6 C 60 % 1018,9 hPa 0,0 mm 2,5 km/h (1 Bft) N 360 0 min 0 W/m 9,7 C 17,6 C 4,0 km/h (1 Bft)
12/09/2012 13:40 17,9 C 59 % 1019,0 hPa 0,0 mm 6,1 km/h (2 Bft) N 360 0 min 0 W/m 9,8 C 17,9 C 11,9 km/h (2 Bft)
12/09/2012 13:50 18,0 C 58 % 1019,0 hPa 0,0 mm 1,8 km/h (1 Bft) O 270 0 min 0 W/m 9,6 C 18,0 C 4,3 km/h (1 Bft)
12/09/2012 14:00 18,2 C 58 % 1019,1 hPa 0,0 mm 4,7 km/h (1 Bft) N-NE 22 0 min 0 W/m 9,8 C 18,2 C 7,6 km/h (2 Bft)
12/09/2012 14:10 18,3 C 58 % 1019,0 hPa 0,0 mm 1,1 km/h (1 Bft) N 360 0 min 0 W/m 9,9 C 18,3 C 4,3 km/h (1 Bft)
12/09/2012 14:20 18,5 C 58 % 1018,9 hPa 0,0 mm 3,6 km/h (1 Bft) NE 45 0 min 0 W/m 10,1 C 18,5 C 4,3 km/h (1 Bft)
12/09/2012 14:30 18,9 C 57 % 1018,9 hPa 0,0 mm 3,6 km/h (1 Bft) N 360 0 min 0 W/m 10,2 C 18,9 C 3,6 km/h (1 Bft)
12/09/2012 14:40 19,1 C 56 % 1018,8 hPa 0,0 mm 2,2 km/h (1 Bft) N-NO 337 0 min 0 W/m 10,1 C 19,1 C 7,2 km/h (2 Bft)
12/09/2012 14:50 19,2 C 55 % 1018,7 hPa 0,0 mm 2,9 km/h (1 Bft) O 270 0 min 0 W/m 9,9 C 19,2 C 10,4 km/h (2 Bft)
12/09/2012 15:00 19,6 C 55 % 1018,6 hPa 0,0 mm 1,4 km/h (1 Bft) N-NO 337 0 min 0 W/m 10,3 C 19,6 C 4,0 km/h (1 Bft)
12/09/2012 15:10 19,9 C 53 % 1018,4 hPa 0,0 mm 1,1 km/h (1 Bft) O 270 0 min 0 W/m 10,0 C 19,9 C 3,2 km/h (1 Bft)
12/09/2012 15:20 20,2 C 49 % 1018,2 hPa 0,0 mm 7,6 km/h (2 Bft) O-NO 292 0 min 0 W/m 9,1 C 20,2 C 13,0 km/h (3 Bft)
12/09/2012 15:30 20,1 C 50 % 1018,3 hPa 0,0 mm 2,5 km/h (1 Bft) NO 315 0 min 0 W/m 9,3 C 20,1 C 2,9 km/h (1 Bft)
12/09/2012 15:40 19,8 C 50 % 1018,3 hPa 0,0 mm 5,4 km/h (2 Bft) NO 315 0 min 0 W/m 9,1 C 19,8 C 5,4 km/h (2 Bft)
12/09/2012 15:50 19,3 C 51 % 1018,2 hPa 0,0 mm 5,0 km/h (1 Bft) NO 315 0 min 0 W/m 8,9 C 19,3 C 8,6 km/h (2 Bft)
12/09/2012 16:00 18,9 C 52 % 1018,2 hPa 0,0 mm 6,8 km/h (2 Bft) O-NO 292 0 min 0 W/m 8,8 C 18,9 C 10,8 km/h (2 Bft)
12/09/2012 16:10 19,1 C 52 % 1018,1 hPa 0,0 mm 2,2 km/h (1 Bft) O 270 0 min 0 W/m 9,0 C 19,1 C 6,8 km/h (2 Bft)
12/09/2012 16:20 19,0 C 51 % 1018,2 hPa 0,0 mm 7,2 km/h (2 Bft) O-NO 292 0 min 0 W/m 8,6 C 19,0 C 11,9 km/h (2 Bft)
12/09/2012 16:30 18,7 C 51 % 1018,1 hPa 0,0 mm 0,7 km/h (0 Bft) N-NO 337 0 min 0 W/m 8,4 C 18,7 C 3,6 km/h (1 Bft)
12/09/2012 16:40 18,4 C 52 % 1018,1 hPa 0,0 mm 0,0 km/h (0 Bft) N-NE 22 0 min 0 W/m 8,4 C 18,4 C 0,0 km/h (0 Bft)
12/09/2012 16:50 18,1 C 52 % 1017,9 hPa 0,0 mm 1,8 km/h (1 Bft) N-NO 337 0 min 0 W/m 8,1 C 18,1 C 7,2 km/h (2 Bft)
12/09/2012 17:00 17,8 C 50 % 1018,0 hPa 0,0 mm 1,4 km/h (1 Bft) N-NO 337 0 min 0 W/m 7,2 C 17,8 C 1,4 km/h (1 Bft)
12/09/2012 17:10 17,4 C 51 % 1018,0 hPa 0,0 mm 0,0 km/h (0 Bft) N-NE 22 0 min 0 W/m 7,2 C 17,4 C 1,4 km/h (1 Bft)
12/09/2012 17:20 17,3 C 52 % 1018,1 hPa 0,0 mm 2,2 km/h (1 Bft) N 360 0 min 0 W/m 7,3 C 17,3 C 6,5 km/h (2 Bft)
12/09/2012 17:30 17,2 C 52 % 1018,2 hPa 0,0 mm 2,2 km/h (1 Bft) O-NO 292 0 min 0 W/m 7,3 C 17,2 C 8,3 km/h (2 Bft)
12/09/2012 17:40 17,2 C 53 % 1018,2 hPa 0,0 mm 5,0 km/h (1 Bft) NO 315 0 min 0 W/m 7,5 C 17,2 C 10,8 km/h (2 Bft)
12/09/2012 17:50 17,3 C 53 % 1018,2 hPa 0,0 mm 2,2 km/h (1 Bft) NO 315 0 min 0 W/m 7,6 C 17,3 C 9,4 km/h (2 Bft)
12/09/2012 18:00 17,3 C 53 % 1018,1 hPa 0,0 mm 2,2 km/h (1 Bft) NO 315 0 min 0 W/m 7,6 C 17,3 C 2,2 km/h (1 Bft)
12/09/2012 18:10 17,4 C 53 % 1018,2 hPa 0,0 mm 0,4 km/h (0 Bft) N-NO 337 0 min 0 W/m 7,7 C 17,4 C 0,4 km/h (0 Bft)
12/09/2012 18:20 17,3 C 53 % 1018,1 hPa 0,0 mm 3,2 km/h (1 Bft) NO 315 0 min 0 W/m 7,6 C 17,3 C 9,0 km/h (2 Bft)
12/09/2012 18:30 17,2 C 53 % 1018,1 hPa 0,0 mm 2,9 km/h (1 Bft) NO 315 0 min 0 W/m 7,5 C 17,2 C 3,2 km/h (1 Bft)
12/09/2012 18:40 17,1 C 54 % 1018,1 hPa 0,0 mm 0,0 km/h (0 Bft) N-NO 337 0 min 0 W/m 7,7 C 17,1 C 0,0 km/h (0 Bft)
12/09/2012 18:50 17,1 C 54 % 1018,0 hPa 0,0 mm 0,4 km/h (0 Bft) N 360 0 min 0 W/m 7,7 C 17,1 C 0,4 km/h (0 Bft)
12/09/2012 19:00 16,8 C 55 % 1018,2 hPa 0,0 mm 0,0 km/h (0 Bft) N-NO 337 0 min 0 W/m 7,7 C 16,8 C 0,0 km/h (0 Bft)
12/09/2012 19:10 16,6 C 56 % 1018,2 hPa 0,0 mm 0,0 km/h (0 Bft) N 360 0 min 0 W/m 7,8 C 16,6 C 0,0 km/h (0 Bft)
12/09/2012 19:20 16,5 C 56 % 1018,2 hPa 0,0 mm 0,0 km/h (0 Bft) N 360 0 min 0 W/m 7,7 C 16,5 C 0,0 km/h (0 Bft)
12/09/2012 19:30 16,3 C 57 % 1018,1 hPa 0,0 mm 0,0 km/h (0 Bft) N 360 0 min 0 W/m 7,8 C 16,3 C 0,0 km/h (0 Bft)
12/09/2012 19:40 16,1 C 58 % 1018,0 hPa 0,0 mm 0,0 km/h (0 Bft) N 360 0 min 0 W/m 7,8 C 16,1 C 0,0 km/h (0 Bft)
12/09/2012 19:50 15,9 C 59 % 1018,1 hPa 0,0 mm 0,0 km/h (0 Bft) N 360 0 min 0 W/m 7,9 C 15,9 C 0,0 km/h (0 Bft)
12/09/2012 20:00 15,8 C 59 % 1018,2 hPa 0,0 mm 0,0 km/h (0 Bft) N 360 0 min 0 W/m 7,8 C 15,8 C 0,0 km/h (0 Bft)
12/09/2012 20:10 15,6 C 60 % 1018,2 hPa 0,0 mm 0,0 km/h (0 Bft) N 360 0 min 0 W/m 7,9 C 15,6 C 0,0 km/h (0 Bft)
12/09/2012 20:20 15,5 C 59 % 1018,3 hPa 0,0 mm 0,4 km/h (0 Bft) N-NE 22 0 min 0 W/m 7,5 C 15,5 C 2,9 km/h (1 Bft)
12/09/2012 20:30 15,4 C 59 % 1018,5 hPa 0,0 mm 0,7 km/h (0 Bft) N-NO 337 0 min 0 W/m 7,4 C 15,4 C 4,0 km/h (1 Bft)
12/09/2012 20:40 15,4 C 60 % 1018,6 hPa 0,0 mm 6,5 km/h (2 Bft) NO 315 0 min 0 W/m 7,7 C 15,4 C 9,0 km/h (2 Bft)
12/09/2012 20:50 15,3 C 61 % 1018,8 hPa 0,0 mm 1,4 km/h (1 Bft) NO 315 0 min 0 W/m 7,8 C 15,3 C 1,4 km/h (1 Bft)
12/09/2012 21:00 15,3 C 61 % 1018,8 hPa 0,0 mm 0,4 km/h (0 Bft) N-NO 337 0 min 0 W/m 7,8 C 15,3 C 0,4 km/h (0 Bft)
12/09/2012 21:10 15,2 C 62 % 1018,8 hPa 0,0 mm 0,0 km/h (0 Bft) N-NO 337 0 min 0 W/m 8,0 C 15,2 C 0,0 km/h (0 Bft)
12/09/2012 21:20 15,1 C 62 % 1018,8 hPa 0,0 mm 2,2 km/h (1 Bft) N-NO 337 0 min 0 W/m 7,9 C 15,1 C 4,3 km/h (1 Bft)
12/09/2012 21:30 15,0 C 63 % 1018,8 hPa 0,0 mm 0,0 km/h (0 Bft) N-NO 337 0 min 0 W/m 8,0 C 15,0 C 0,0 km/h (0 Bft)
12/09/2012 21:40 14,9 C 63 % 1018,8 hPa 0,0 mm 0,0 km/h (0 Bft) NO 315 0 min 0 W/m 7,9 C 14,9 C 0,0 km/h (0 Bft)
12/09/2012 21:50 14,8 C 64 % 1018,7 hPa 0,0 mm 0,0 km/h (0 Bft) NO 315 0 min 0 W/m 8,1 C 14,8 C 0,0 km/h (0 Bft)
12/09/2012 22:00 14,5 C 64 % 1018,7 hPa 0,0 mm 0,0 km/h (0 Bft) O-SO 247 0 min 0 W/m 7,8 C 14,5 C 0,0 km/h (0 Bft)
12/09/2012 22:10 14,3 C 66 % 1018,6 hPa 0,0 mm 0,0 km/h (0 Bft) S-SO 202 0 min 0 W/m 8,0 C 14,3 C 0,0 km/h (0 Bft)
12/09/2012 22:20 14,3 C 67 % 1018,8 hPa 0,0 mm 0,0 km/h (0 Bft) O-SO 247 0 min 0 W/m 8,3 C 14,3 C 3,2 km/h (1 Bft)
12/09/2012 22:30 14,1 C 68 % 1018,8 hPa 0,0 mm 0,4 km/h (0 Bft) S-SO 202 0 min 0 W/m 8,3 C 14,1 C 0,4 km/h (0 Bft)
12/09/2012 22:40 14,1 C 68 % 1018,8 hPa 0,0 mm 0,0 km/h (0 Bft) S-SO 202 0 min 0 W/m 8,3 C 14,1 C 0,0 km/h (0 Bft)
12/09/2012 22:50 14,1 C 68 % 1018,8 hPa 0,0 mm 0,0 km/h (0 Bft) O-SO 247 0 min 0 W/m 8,3 C 14,1 C 0,0 km/h (0 Bft)
12/09/2012 23:00 13,9 C 69 % 1018,7 hPa 0,0 mm 0,4 km/h (0 Bft) SO 225 0 min 0 W/m 8,3 C 13,9 C 4,0 km/h (1 Bft)
12/09/2012 23:10 13,8 C 69 % 1018,6 hPa 0,0 mm 1,4 km/h (1 Bft) SO 225 0 min 0 W/m 8,2 C 13,8 C 7,2 km/h (2 Bft)
12/09/2012 23:20 13,6 C 70 % 1018,5 hPa 0,0 mm 0,0 km/h (0 Bft) SO 225 0 min 0 W/m 8,2 C 13,6 C 0,0 km/h (0 Bft)
12/09/2012 23:30 13,4 C 72 % 1018,4 hPa 0,0 mm 0,0 km/h (0 Bft) S-SO 202 0 min 0 W/m 8,5 C 13,4 C 0,0 km/h (0 Bft)
12/09/2012 23:40 13,3 C 73 % 1018,4 hPa 0,0 mm 0,7 km/h (0 Bft) S-SO 202 0 min 0 W/m 8,6 C 13,3 C 0,7 km/h (0 Bft)
12/09/2012 23:50 13,3 C 73 % 1018,4 hPa 0,0 mm 0,0 km/h (0 Bft) S-SO 202 0 min 0 W/m 8,6 C 13,3 C 0,0 km/h (0 Bft)
_ Min-Heure 08:30 15:20 07:30 - 23:50 - - - - 17:10 08:30 23:50
Minimum _ 11,7 C 49 % 1017,6 hPa - 0,0 km/h (0 Bft) - - - - 7,2 C 11,7 C 0,0 km/h (0 Bft)
_ Max-Heure 15:20 02:10 11:40 23:50 15:20 - - 23:50 23:50 00:20 15:20 15:20
Maximum _ 20,2 C 82 % 1019,4 hPa 0,0 mm 7,6 km/h
O-NO (2 Bft)
- - 0 min 0 W/m 13,3 C 20,2 C 13,0 km/h
O-NO (3 Bft)
Moyenne _ 15,1 C 70 % 1018,4 hPa #0,0 mm 1,3 km/h (1 Bft) N-NE - #0 min. 0 W/m 9,4 C 15,1 C 3,0 km/h (1 Bft)
Saint Bonnet de Bellac- Haute Vienne - France